Regional Weather Roundup
Issued by NWS

Home | Current Version | Previous Version | Text Only | Print | Product List | Glossary Off
Versions: 1 2 3 4 5 6 7 8 9 10 11 12 13 14 15 16 17 18 19 20 21 22 23 24 25 26 27 28 29 30 31 32 33 34 35 36 37 38 39 40 41 42 43 44 45 46 47 48 49 50

000
ASUS43 KOAX 190302
RWRNE

WEATHER ROUNDUP FOR NEBRASKA
NATIONAL WEATHER SERVICE OMAHA NE
1000 PM CDT MON SEP 18 2017

NOTES: SATELLITE DATA IS BEING USED TO AUGMENT CLOUD COVER ABOVE
       12000 FEET.
       "FAIR" INDICATES FEW OR NO CLOUDS BELOW 12,000 FEET WITH NO
       SIGNIFICANT WEATHER AND/OR OBSTRUCTIONS TO VISIBILITY.


NEZ001>004-019>022-054>056-190400-
NEBRASKA PANHANDLE

CITY           SKY/WX    TMP DP  RH WIND       PRES   REMARKS
SCOTTSBLUFF    CLEAR     58  50  75 E7        29.81S
ALLIANCE       CLEAR     56  46  69 SE10      29.82S
CHADRON        CLEAR     74  38  27 S21       29.74S
GORDON         FAIR      65  45  49 S8        29.80S
KIMBALL        CLEAR     58  39  49 S9        29.89S
SIDNEY         CLEAR     63  37  38 SE13      29.87F
$$

NEZ057>060-069>072-079>082-190400-
SOUTHWEST NEBRASKA

CITY           SKY/WX    TMP DP  RH WIND       PRES   REMARKS
NORTH PLATTE   CLEAR     60  56  86 SE7       29.86F
IMPERIAL       CLEAR     64  49  57 SE12      29.87S
LEXINGTON      CLEAR     67  59  75 SE6       29.88F
MCCOOK         CLEAR     67  57  70 E7        29.87S
OGALLALA       CLEAR     69  46  43 SE10      29.85S
$$

NEZ005>010-023>029-035>040-094-190400-
NORTH CENTRAL NEBRASKA

CITY           SKY/WX    TMP DP  RH WIND       PRES   REMARKS
VALENTINE      CLEAR     68  58  70 S12       29.81S
AINSWORTH      CLEAR     64  60  86 S9        29.84S
BROKEN BOW     CLEAR     60  57  89 SE3       29.87S
O`NEILL        CLEAR     63  62  97 SE6       29.86R
ORD            CLEAR     61  57  87 CALM      29.85F
THEDFORD       CLEAR     66  60  78 S10       29.86S
$$

NEZ041-046>049-061>064-073>077-083>087-190400-
SOUTH CENTRAL NEBRASKA

CITY           SKY/WX    TMP DP  RH WIND       PRES   REMARKS
GRAND ISLAND   CLEAR     65  64  97 SE5       29.89S
AURORA         CLEAR     63  63 100 SE6       29.89S
HASTINGS       CLEAR     70  64  81 SE6       29.89S
HEBRON         CLEAR     68  65  90 CALM      29.88S
HOLDREGE       CLEAR     63  58  84 E7        29.89F
KEARNEY        CLEAR     65  61  87 SE7       29.90R
YORK           CLEAR     66  66 100 SE5       29.89S
$$

NEZ011>018-030>034-042>045-190400-
NORTHEAST NEBRASKA

CITY           SKY/WX    TMP DP  RH WIND       PRES   REMARKS
NORFOLK        CLEAR     62  62 100 SE6       29.88R FOG
ALBION         CLEAR     63  62  99 SE3       29.88S FOG
BLAIR          PTCLDY    68  66  94 SE7       29.91S
COLUMBUS       CLEAR     64  63  96 E5        29.89R FOG
FREMONT        CLEAR     67  65  96 SE7       29.90S
TEKAMAH        PTCLDY    68  65  90 SE7       29.89S
WAYNE          CLEAR     64  62  91 SE7       29.89S
$$

NEZ050>053-065>068-078-088>093-190400-
SOUTHEAST NEBRASKA

CITY           SKY/WX    TMP DP  RH WIND       PRES   REMARKS
LINCOLN        CLEAR     68  64  87 SE3       29.90R
OMAHA EPPLEY   MOCLDY    70  65  84 SE8       29.90S
BEATRICE       CLEAR     68  65  90 E5        29.89R
FALLS CITY     CLEAR     67  65  93 SE5       29.89S
NEBRASKA CITY  CLEAR     69  69 100 SE6       29.90F
PLATTSMOUTH    CLEAR     67  67  99 SE6       29.91S
$$

NEZ044-045-051>053-067-190400-
OMAHA AREA

CITY           SKY/WX    TMP DP  RH WIND       PRES   REMARKS
OMAHA EPPLEY   MOCLDY    70  65  84 SE8       29.90S
BLAIR          PTCLDY    68  66  94 SE7       29.91S
FREMONT        CLEAR     67  65  96 SE7       29.90S
OFFUTT AFB     CLEAR     68  65  93 E6        29.90R
PLATTSMOUTH    CLEAR     67  67  99 SE6       29.91S
WAHOO          FAIR      65  64  98 E5        29.90S
$$




USA.gov is the U.S. government's official web portal to all federal, state and local government web resources and services.